Astoria, OR

10:23 PM PDT on September 19, 2017 (GMT -0700)
Astoria Regional

Weather History for KAST - October, 2011

Change the Weather History Date:

Saturday, October 1, 2011

  Actual Average Record
Temperature  
Mean Temperature 56 °F 56 °F  
Max Temperature 60 °F 65 °F 78 °F (1952)
Min Temperature 52 °F 47 °F 35 °F (1983)
Degree Days  
Heating Degree Days 9 9  
Month to date heating degree days 9 9  
Since 1 July heating degree days 458 490  
Cooling Degree Days 0 0  
Month to date cooling degree days 0 0  
Year to date cooling degree days 6 12  
Growing Degree Days 6 (Base 50)    
Moisture  
Dew Point 51 °F    
Average Humidity 86    
Maximum Humidity 100    
Minimum Humidity 72    
Precipitation  
Precipitation 0.02 in 0.11 in 1.74 in (1967)
Month to date precipitation 0.02 0.11  
Year to date precipitation 49.69 40.35  
Snow  
Snow 0.00 in - - ()
Month to date snowfall 0.0  
Snow Depth 0.00 in    
Sea Level Pressure  
Sea Level Pressure 29.93 in    
Wind  
Wind Speed 4 mph (WSW)    
Max Wind Speed 12 mph    
Max Gust Speed 14 mph    
Visibility 10 miles    
Events Rain    
T = Trace of Precipitation, MM = Missing Value Source: NWS Daily Summary

Daily Weather History Graph

Daily Weather History Graph

Search for Another Location

Airport or City:

Trip Planner

Search our weather history database for the weather conditions in past years. The results will help you decide how hot, cold, wet, or windy it might be!

Date:

Astronomy

Oct. 01, 2011 Rise Set
Actual Time 7:13 AM PDT 6:55 PM PDT
Civil Twilight 6:43 AM PDT 7:25 PM PDT
Nautical Twilight 6:09 AM PDT 8:00 PM PDT
Astronomical Twilight 5:33 AM PDT 8:35 PM PDT
Moon 12:45 PM PDT (10/1) 9:39 PM PDT (10/1)
Length of Visible Light 12h 41m
Length of Day
11h 42m
Waxing Crescent, 25% of the Moon is Illuminated
Oct 1
Waxing Crescent
Oct 3
First Quarter
Oct 11
Full
Oct 19
Last Quarter
Oct 26
New

Hourly Weather History & Observations

Time (PDT) Temp. Dew Point Humidity Pressure Visibility Wind Dir Wind Speed Gust Speed Precip Events Conditions
12:19 AM 51.8 °F 50.0 °F 94% 29.86 in 10.0 mi Calm Calm - N/A   Overcast
12:55 AM 52.0 °F 51.1 °F 97% 29.87 in 10.0 mi Calm Calm - N/A   Overcast
1:55 AM 53.1 °F 51.1 °F 93% 29.87 in 10.0 mi South 3.5 mph - N/A   Overcast
2:55 AM 53.1 °F 51.1 °F 93% 29.87 in 10.0 mi SW 4.6 mph - N/A   Overcast
3:34 AM 53.6 °F 51.8 °F 94% 29.87 in 10.0 mi Calm Calm - N/A   Overcast
3:55 AM 54.0 °F 52.0 °F 93% 29.88 in 10.0 mi West 3.5 mph - N/A   Overcast
4:55 AM 54.0 °F 52.0 °F 93% 29.88 in 10.0 mi Calm Calm - N/A   Overcast
5:55 AM 54.0 °F 52.0 °F 93% 29.88 in 10.0 mi SW 3.5 mph - N/A   Overcast
6:55 AM 54.0 °F 51.1 °F 90% 29.88 in 10.0 mi Calm Calm - N/A   Overcast
7:13 AM 53.6 °F 51.8 °F 94% 29.88 in 10.0 mi South 3.5 mph - N/A   Mostly Cloudy
7:55 AM 52.0 °F 51.1 °F 97% 29.89 in 10.0 mi SSE 4.6 mph - N/A   Scattered Clouds
8:55 AM 53.1 °F 52.0 °F 96% 29.89 in 10.0 mi SSE 3.5 mph - N/A   Partly Cloudy
9:55 AM 55.9 °F 52.0 °F 87% 29.92 in 10.0 mi SW 3.5 mph - N/A   Mostly Cloudy
10:55 AM 57.0 °F 52.0 °F 83% 29.93 in 9.0 mi WSW 4.6 mph - N/A   Overcast
11:55 AM 57.2 °F 53.6 °F 88% 29.94 in 8.0 mi SSW 5.8 mph - N/A Rain Light Rain
12:55 PM 57.0 °F 54.0 °F 89% 29.96 in 7.0 mi SSW 3.5 mph - 0.01 in Rain Light Rain
1:55 PM 60.1 °F 55.0 °F 83% 29.96 in 10.0 mi SSW 5.8 mph - 0.01 in   Overcast
2:55 PM 59.0 °F 52.0 °F 78% 29.96 in 10.0 mi SW 5.8 mph - N/A   Mostly Cloudy
3:12 PM 59.0 °F 51.8 °F 77% 29.96 in 10.0 mi SW 4.6 mph - N/A   Mostly Cloudy
3:23 PM 60.8 °F 51.8 °F 72% 29.97 in 10.0 mi WSW 6.9 mph - N/A   Overcast
3:55 PM 59.0 °F 51.1 °F 75% 29.97 in 10.0 mi West 8.1 mph - N/A   Mostly Cloudy
4:30 PM 57.2 °F 50.0 °F 77% 29.98 in 10.0 mi NW 9.2 mph - N/A   Overcast
4:55 PM 57.9 °F 48.9 °F 72% 29.98 in 10.0 mi NNW 8.1 mph - N/A   Overcast
5:55 PM 57.0 °F 48.9 °F 74% 29.97 in 10.0 mi NNW 6.9 mph - N/A   Mostly Cloudy
6:55 PM 57.0 °F 48.0 °F 72% 29.96 in 10.0 mi North 4.6 mph - N/A   Overcast
7:55 PM 54.0 °F 50.0 °F 86% 29.96 in 10.0 mi Calm Calm - N/A   Clear
8:55 PM 51.1 °F 48.0 °F 89% 29.96 in 10.0 mi Calm Calm - N/A   Overcast
9:55 PM 55.9 °F 48.9 °F 77% 29.96 in 10.0 mi NNE 6.9 mph - N/A   Overcast
10:55 PM 55.0 °F 50.0 °F 83% 29.96 in 10.0 mi Calm Calm - N/A   Overcast
11:55 PM 54.0 °F 50.0 °F 86% 29.96 in 10.0 mi Calm Calm - N/A   Overcast